Weather History for Aurora, IL

Change the Weather History Date:

Saturday, January 4, 2014

  Actual Average Record
Temperature  
Mean Temperature 25 °F 21 °F  
Max Temperature 31 °F 29 °F 62 °F (1997)
Min Temperature 19 °F 14 °F -17 °F (1999)
Degree Days  
Heating Degree Days 40 44  
Month to date heating degree days 210 174  
Since 1 July heating degree days 3039 2823  
Cooling Degree Days 0 0  
Month to date cooling degree days 0 0  
Year to date cooling degree days 0 0  
Moisture  
Dew Point 23 °F    
Average Humidity 82    
Maximum Humidity 100    
Minimum Humidity 63    
Precipitation  
Precipitation 0.01 in 0.04 in 0.85 in (2007)
Month to date precipitation 0.00 0.17  
Year to date precipitation 0.00 0.17  
Sea Level Pressure  
Sea Level Pressure 29.92 in    
Wind  
Wind Speed 12 mph (SSW)    
Max Wind Speed 25 mph    
Max Gust Speed 34 mph    
Visibility 4 miles    
Events Snow    
T = Trace of Precipitation, MM = Missing Value Source: NWS Daily Summary

Daily Weather History Graph

Daily Weather History Graph

Search for Another Location

Airport:

Trip Planner

Search our weather history database for the weather conditions in past years. The results will help you decide how hot, cold, wet, or windy it might be!

Date:

Astronomy

Jan. 04, 2014 Rise Set
Actual Time 7:21 AM CST 4:36 PM CST
Civil Twilight 6:50 AM CST 5:08 PM CST
Nautical Twilight 6:15 AM CST 5:42 PM CST
Astronomical Twilight 5:41 AM CST 6:16 PM CST
Moon 9:23 AM CST (1/4) 9:00 PM CST (1/4)
Length of Visible Light 10h 17m
Length of Day
9h 15m
Waxing Crescent, 15% of the Moon is Illuminated
Jan 4
Waxing Crescent
Jan 7
First Quarter
Jan 15
Full
Jan 23
Last Quarter
Jan 30
New

Hourly Weather History & Observations

Time (CST) Temp. Windchill Dew Point Humidity Pressure Visibility Wind Dir Wind Speed Gust Speed Precip Events Conditions
12:52 AM 19.0 °F 4.0 °F 12.0 °F 74% 29.92 in 10.0 mi South 17.3 mph - N/A   Clear
1:52 AM 19.9 °F 4.3 °F 12.9 °F 74% 29.91 in 9.0 mi South 19.6 mph 31.1 mph N/A   Clear
2:52 AM 21.0 °F 6.2 °F 12.9 °F 71% 29.89 in 10.0 mi South 18.4 mph 28.8 mph N/A   Clear
3:52 AM 21.9 °F 5.8 °F 14.0 °F 72% 29.88 in 10.0 mi South 23.0 mph 34.5 mph N/A   Clear
4:52 AM 23.0 °F 7.6 °F 14.0 °F 68% 29.86 in 10.0 mi South 21.9 mph 29.9 mph N/A   Clear
5:52 AM 23.0 °F 8.3 °F 14.0 °F 68% 29.86 in 10.0 mi SSW 19.6 mph 29.9 mph N/A   Clear
6:52 AM 24.1 °F 9.0 °F 15.1 °F 69% 29.86 in 10.0 mi SSW 21.9 mph 29.9 mph N/A   Clear
7:52 AM 25.0 °F 11.3 °F 16.0 °F 69% 29.87 in 10.0 mi SSW 18.4 mph 27.6 mph N/A   Scattered Clouds
8:52 AM 27.0 °F 14.7 °F 17.1 °F 66% 29.90 in 10.0 mi SSW 16.1 mph 21.9 mph N/A   Overcast
9:52 AM 28.0 °F 16.1 °F 18.0 °F 66% 29.90 in 10.0 mi SSW 16.1 mph - N/A   Overcast
10:40 AM 28.0 °F 16.5 °F 18.0 °F 66% 29.87 in 10.0 mi SSW 15.0 mph - N/A   Overcast
10:52 AM 28.0 °F 17.0 °F 18.0 °F 66% 29.90 in 10.0 mi SSW 13.8 mph 25.3 mph N/A   Overcast
11:52 AM 28.9 °F 18.6 °F 19.9 °F 69% 29.88 in 10.0 mi SSW 12.7 mph 19.6 mph N/A   Overcast
12:52 PM 30.0 °F 19.5 °F 21.0 °F 69% 29.87 in 5.0 mi SSW 13.8 mph - 0.00 in Snow Light Snow
1:52 PM 30.9 °F 21.2 °F 21.9 °F 69% 29.87 in 6.0 mi South 12.7 mph - 0.00 in   Haze
2:32 PM 30.9 °F 21.7 °F 23.0 °F 72% 29.85 in 8.0 mi SSW 11.5 mph - N/A   Overcast
2:52 PM 30.9 °F 21.7 °F 24.1 °F 76% 29.91 in 2.5 mi SSW 11.5 mph - 0.00 in Snow Light Snow
3:03 PM 30.9 °F 22.2 °F 25.0 °F 79% 29.89 in 1.2 mi SW 10.4 mph - 0.00 in Snow Light Snow
3:15 PM 30.0 °F 21.1 °F 26.1 °F 85% 29.90 in 0.8 mi SW 10.4 mph - 0.00 in Snow Light Snow
3:52 PM 30.0 °F 22.4 °F 27.0 °F 88% 29.94 in 0.8 mi SSW 8.1 mph - 0.00 in Snow Light Snow
4:04 PM 30.0 °F 23.2 °F 27.0 °F 88% 29.92 in 1.0 mi SW 6.9 mph - 0.01 in Snow Light Snow
4:14 PM 30.0 °F 22.4 °F 28.0 °F 92% 29.92 in 1.0 mi SW 8.1 mph - 0.01 in Snow Light Snow
4:27 PM 30.0 °F 22.4 °F 28.0 °F 92% 29.92 in 0.8 mi SSW 8.1 mph - 0.01 in Snow Light Snow
4:48 PM 30.2 °F 23.4 °F 28.4 °F 93% 29.93 in 1.0 mi SSW 6.9 mph - 0.01 in Snow Light Snow
4:52 PM 30.0 °F 23.2 °F 28.0 °F 92% 29.96 in 1.0 mi SSW 6.9 mph - 0.01 in Snow Light Snow
5:06 PM 30.0 °F 23.2 °F 28.0 °F 92% 29.93 in 0.8 mi SSW 6.9 mph - 0.00 in Snow Light Snow
5:16 PM 30.0 °F 24.1 °F 28.0 °F 92% 29.92 in 1.0 mi SSW 5.8 mph - 0.00 in Snow Light Snow
5:52 PM 30.0 °F 25.2 °F 28.0 °F 92% 29.96 in 1.0 mi South 4.6 mph - 0.00 in Snow Light Snow
5:58 PM 30.0 °F 25.2 °F 28.0 °F 92% 29.94 in 0.8 mi SSW 4.6 mph - 0.00 in Snow Light Snow
6:08 PM 30.0 °F 25.2 °F 28.0 °F 92% 29.94 in 1.0 mi SSW 4.6 mph - 0.00 in Snow Light Snow
6:44 PM 30.0 °F - 28.9 °F 96% 29.95 in 0.8 mi Calm Calm - 0.00 in Snow Light Snow
6:52 PM 30.0 °F - 28.0 °F 92% 29.98 in 0.8 mi Calm Calm - 0.00 in Snow Light Snow
7:04 PM 30.0 °F - 28.9 °F 96% 29.95 in 0.8 mi Calm Calm - 0.00 in Snow Light Snow
7:41 PM 30.0 °F - 28.0 °F 92% 29.95 in 1.0 mi Calm Calm - 0.00 in Snow Light Snow
7:52 PM 30.0 °F - 28.0 °F 92% 29.99 in 1.0 mi Calm Calm - 0.00 in Snow Light Snow
8:33 PM 30.0 °F - 28.0 °F 92% 29.96 in 0.8 mi Calm Calm - 0.00 in Snow Light Snow
8:52 PM 30.0 °F - 28.0 °F 92% 29.99 in 0.8 mi Calm Calm - 0.00 in Snow Light Snow
9:52 PM 28.9 °F - 28.0 °F 96% 30.00 in 0.8 mi Calm Calm - 0.00 in Snow Light Snow
10:31 PM 28.9 °F - 28.0 °F 96% 29.98 in 1.0 mi Calm Calm - 0.00 in Snow Light Snow
10:52 PM 28.9 °F - 27.0 °F 92% 30.01 in 1.0 mi Calm Calm - 0.00 in Snow Light Snow
11:18 PM 28.9 °F 23.9 °F 27.0 °F 92% 29.98 in 1.0 mi NNW 4.6 mph - 0.00 in Snow Light Snow
11:52 PM 28.9 °F 21.9 °F 27.0 °F 92% 30.01 in 1.2 mi NW 6.9 mph - 0.00 in Snow Light Snow